• In Hungary
  • List of Countries
  • For 7 days
  • Water Temperature
  • Satellite Maps
  • Weather Map
  • News
  • Weather Widgets
  • user-avatar
    Login

    Hourly Weather Oudenaarde

    Today, 23 February, Friday

    Time Temperature Precipitation Wind Pressure Humidity
    00:00 -4°C° 0 mm 5 mps 765 mmHg 66%
    01:00 -4°C° 0 mm 5 mps 765 mmHg 66%
    02:00 -4°C° 0 mm 5 mps 765 mmHg 66%
    03:00 -5°C° 0 mm 5 mps 764 mmHg 66%
    04:00 -5°C° 0 mm 5 mps 764 mmHg 67%
    05:00 -5°C° 0 mm 5 mps 764 mmHg 68%
    06:00 -5°C° 0 mm 5 mps 764 mmHg 69%
    07:00 -4°C° 0 mm 5 mps 764 mmHg 64%
    08:00 -3°C° 0 mm 6 mps 764 mmHg 60%
    09:00 -2°C° 0 mm 6 mps 764 mmHg 55%
    10:00 -1°C° 0 mm 7 mps 764 mmHg 52%
    11:00 0°C° 0 mm 7 mps 764 mmHg 48%
    12:00 +2°C° 0 mm 7 mps 763 mmHg 44%
    13:00 +2°C° 0 mm 7 mps 763 mmHg 44%
    14:00 +2°C° 0 mm 7 mps 763 mmHg 43%
    15:00 +2°C° 0 mm 7 mps 763 mmHg 42%
    16:00 -1°C° 0 mm 6 mps 763 mmHg 44%
    17:00 -2°C° 0 mm 6 mps 763 mmHg 45%
    18:00 -2°C° 0 mm 5 mps 763 mmHg 47%
    19:00 -2°C° 0 mm 5 mps 763 mmHg 47%
    20:00 -4°C° 0 mm 5 mps 763 mmHg 46%
    21:00 -4°C° 0 mm 5 mps 763 mmHg 46%
    22:00 -4°C° 0 mm 5 mps 763 mmHg 45%
    23:00 -5°C° 0 mm 5 mps 763 mmHg 44%

    Tomorrow, 24 February, Saturday

    Time Temperature Precipitation Wind Pressure Humidity
    00:00 -5°C° 0 mm 5 mps 763 mmHg 43%
    01:00 -5°C° 0 mm 5 mps 763 mmHg 41%
    02:00 -5°C° 0 mm 5 mps 763 mmHg 40%
    03:00 -5°C° 0 mm 6 mps 763 mmHg 39%
    04:00 -5°C° 0 mm 6 mps 763 mmHg 38%
    05:00 -5°C° 0 mm 6 mps 764 mmHg 37%
    06:00 -5°C° 0 mm 6 mps 764 mmHg 35%
    07:00 -4°C° 0 mm 7 mps 764 mmHg 32%
    08:00 -3°C° 0 mm 7 mps 764 mmHg 29%
    09:00 -2°C° 0 mm 8 mps 764 mmHg 26%
    10:00 -1°C° 0 mm 8 mps 764 mmHg 27%
    11:00 0°C° 0 mm 8 mps 764 mmHg 28%
    12:00 +2°C° 0 mm 8 mps 764 mmHg 30%
    13:00 +2°C° 0 mm 8 mps 764 mmHg 33%
    14:00 +2°C° 0 mm 8 mps 764 mmHg 36%
    15:00 +2°C° 0 mm 8 mps 764 mmHg 39%
    16:00 +1°C° 0 mm 8 mps 764 mmHg 44%
    17:00 -1°C° 0 mm 7 mps 765 mmHg 48%
    18:00 -2°C° 0 mm 7 mps 765 mmHg 53%
    19:00 -2°C° 0 mm 7 mps 765 mmHg 52%
    20:00 -3°C° 0 mm 7 mps 766 mmHg 50%
    21:00 -4°C° 0 mm 7 mps 766 mmHg 48%
    22:00 -4°C° 0 mm 7 mps 766 mmHg 49%
    23:00 -4°C° 0 mm 6 mps 767 mmHg 50%

    Day after tomorrow, 25 February, Sunday

    Time Temperature Precipitation Wind Pressure Humidity
    00:00 -5°C° 0 mm 6 mps 767 mmHg 51%
    01:00 -5°C° 0 mm 6 mps 767 mmHg 49%
    02:00 -5°C° 0 mm 6 mps 767 mmHg 48%
    03:00 -5°C° 0 mm 6 mps 767 mmHg 47%
    04:00 -6°C° 0 mm 6 mps 767 mmHg 45%
    05:00 -6°C° 0 mm 6 mps 768 mmHg 43%
    06:00 -7°C° 0 mm 7 mps 768 mmHg 41%
    07:00 -6°C° 0 mm 7 mps 768 mmHg 36%
    08:00 -6°C° 0 mm 7 mps 769 mmHg 31%
    09:00 -5°C° 0 mm 8 mps 769 mmHg 26%
    10:00 -4°C° 0 mm 8 mps 769 mmHg 25%
    11:00 -2°C° 0 mm 8 mps 769 mmHg 24%
    12:00 -1°C° 0 mm 8 mps 769 mmHg 23%
    13:00 -1°C° 0 mm 7 mps 769 mmHg 24%
    14:00 -1°C° 0 mm 7 mps 769 mmHg 26%
    15:00 -1°C° 0 mm 7 mps 769 mmHg 28%
    16:00 -2°C° 0 mm 7 mps 769 mmHg 32%
    17:00 -3°C° 0 mm 6 mps 769 mmHg 35%
    18:00 -4°C° 0 mm 6 mps 769 mmHg 39%
    19:00 -5°C° 0 mm 6 mps 770 mmHg 40%
    20:00 -5°C° 0 mm 6 mps 770 mmHg 42%
    21:00 -5°C° 0 mm 6 mps 771 mmHg 43%
    22:00 -5°C° 0 mm 5 mps 771 mmHg 45%
    23:00 -6°C° 0 mm 5 mps 771 mmHg 47%

    26 February, Monday

    Time Temperature Precipitation Wind Pressure Humidity
    00:00 -6°C° 0 mm 5 mps 771 mmHg 49%
    01:00 -6°C° 0 mm 5 mps 771 mmHg 51%
    02:00 -5°C° 0 mm 4 mps 771 mmHg 53%
    03:00 -5°C° 0 mm 4 mps 770 mmHg 55%
    04:00 -5°C° 0 mm 4 mps 770 mmHg 56%
    05:00 -7°C° 0 mm 4 mps 770 mmHg 57%
    06:00 -7°C° 0 mm 5 mps 770 mmHg 59%
    07:00 -6°C° 0 mm 5 mps 770 mmHg 56%
    08:00 -6°C° 0 mm 6 mps 770 mmHg 54%
    09:00 -5°C° 0 mm 6 mps 770 mmHg 52%
    10:00 -4°C° 0 mm 6 mps 770 mmHg 48%
    11:00 -4°C° 0 mm 6 mps 770 mmHg 44%
    12:00 -3°C° 0 mm 6 mps 769 mmHg 40%
    13:00 -3°C° 0 mm 7 mps 769 mmHg 39%
    14:00 -3°C° 0 mm 7 mps 769 mmHg 37%
    15:00 -3°C° 0 mm 7 mps 768 mmHg 36%
    16:00 -4°C° 0 mm 6 mps 768 mmHg 39%
    17:00 -5°C° 0 mm 6 mps 768 mmHg 41%
    18:00 -6°C° 0 mm 5 mps 768 mmHg 44%
    19:00 -6°C° 0 mm 5 mps 768 mmHg 45%
    20:00 -6°C° 0 mm 5 mps 768 mmHg 47%
    21:00 -6°C° 0 mm 5 mps 768 mmHg 48%
    22:00 -6°C° 0 mm 5 mps 768 mmHg 50%
    23:00 -7°C° 0 mm 5 mps 768 mmHg 52%

    27 February, Tuesday

    Time Temperature Precipitation Wind Pressure Humidity
    00:00 -7°C° 0 mm 5 mps 768 mmHg 54%
    01:00 -7°C° 0 mm 5 mps 768 mmHg 56%
    02:00 -7°C° 0 mm 5 mps 767 mmHg 57%
    03:00 -7°C° 0 mm 5 mps 767 mmHg 59%
    04:00 -7°C° 0 mm 5 mps 767 mmHg 57%
    05:00 -7°C° 0 mm 4 mps 767 mmHg 56%
    06:00 -8°C° 0 mm 4 mps 766 mmHg 54%
    07:00 -7°C° 0 mm 5 mps 766 mmHg 53%
    08:00 -6°C° 0 mm 5 mps 766 mmHg 52%
    09:00 -6°C° 0 mm 6 mps 766 mmHg 51%
    10:00 -5°C° 0 mm 6 mps 765 mmHg 46%
    11:00 -4°C° 0 mm 6 mps 765 mmHg 41%
    12:00 -4°C° 0 mm 6 mps 765 mmHg 36%
    13:00 -4°C° 0 mm 6 mps 764 mmHg 33%
    14:00 -4°C° 0 mm 6 mps 764 mmHg 31%
    15:00 -3°C° 0 mm 6 mps 763 mmHg 28%
    16:00 -4°C° 0 mm 5 mps 763 mmHg 31%
    17:00 -5°C° 0 mm 5 mps 763 mmHg 34%
    18:00 -5°C° 0 mm 4 mps 763 mmHg 36%
    19:00 -5°C° 0 mm 4 mps 763 mmHg 37%
    20:00 -6°C° 0 mm 3 mps 763 mmHg 37%
    21:00 -6°C° 0 mm 3 mps 763 mmHg 38%
    22:00 -6°C° 0 mm 3 mps 763 mmHg 38%
    23:00 -6°C° 0 mm 3 mps 763 mmHg 38%

    28 February, Wednesday

    Time Temperature Precipitation Wind Pressure Humidity
    00:00 -6°C° 0 mm 3 mps 763 mmHg 38%
    01:00 -7°C° 0 mm 3 mps 762 mmHg 38%
    02:00 -7°C° 0 mm 3 mps 762 mmHg 38%
    03:00 -6°C° 0 mm 2 mps 762 mmHg 38%
    04:00 -6°C° 0 mm 2 mps 761 mmHg 38%
    05:00 -7°C° 0 mm 2 mps 761 mmHg 39%
    06:00 -7°C° 0 mm 2 mps 761 mmHg 39%
    07:00 -7°C° 0 mm 3 mps 761 mmHg 36%
    08:00 -7°C° 0 mm 4 mps 761 mmHg 33%
    09:00 -7°C° 0 mm 4 mps 761 mmHg 30%
    10:00 -5°C° 0 mm 4 mps 760 mmHg 28%
    11:00 -5°C° 0 mm 5 mps 760 mmHg 26%
    12:00 -5°C° 0 mm 5 mps 760 mmHg 24%
    13:00 -5°C° 0 mm 5 mps 759 mmHg 24%
    14:00 -5°C° 0 mm 5 mps 758 mmHg 24%
    15:00 -5°C° 0 mm 6 mps 758 mmHg 23%
    16:00 -5°C° 0 mm 6 mps 757 mmHg 26%
    17:00 -6°C° 0 mm 5 mps 757 mmHg 28%
    18:00 -7°C° 0 mm 5 mps 757 mmHg 30%
    19:00 -8°C° 0 mm 6 mps 756 mmHg 30%
    20:00 -8°C° 0 mm 6 mps 756 mmHg 31%
    21:00 -8°C° 0 mm 6 mps 756 mmHg 31%
    22:00 -9°C° 0 mm 6 mps 755 mmHg 32%
    23:00 -9°C° 0 mm 7 mps 754 mmHg 33%
    Show more